Weather in Travniki

Russia / Chelyabinsk Oblast     54°54′31″N   60°33′43″E
temp.,
°C
wind,
m/s
gust,
m/s
humid.,
%
clouds,
%
prec.,
mm/h
press.,
hPa
HPBL,
m
12 may, wed
wed1223:00+14wsw22405 0.0 102810
02:00+12wsw22460 0.0 102814
05:00+11w33500 0.0 102823
08:00+17nw22395 0.0 1028155
11:00+23n12275 0.0 10281077
14:00+25e23279 0.0 10272635
17:00+26n132529 0.0 10262892
20:00+21n35446 0.0 102682
13 may, thu
thu1323:00+16n22535 0.0 102720
02:00+14nne116122 0.0 102811
05:00+14w226292 0.0 102811
08:00+19nw235160 0.0 1028225
11:00+24n34315 0.0 10271652
14:00+26nnw34275 0.0 10262128
17:00+26nnw44275 0.0 10252345
20:00+22nnw33435 0.0 102629
14 may, fri
fri1423:00+18nnw22505 0.0 102714
02:00+16w11555 0.0 102711
05:00+15w22590 0.0 102812
08:00+20wsw23480 0.0 1028181
11:00+25wsw23330 0.0 10271317
14:00+28ssw34285 0.0 10252949
17:00+28ssw552713 0.0 10242017
20:00+23w33435 0.0 102425
15 may, sat
sat1523:00+19wnw33504 0.0 102535
02:00+17wnw334842 0.0 102530
05:00+16w335640 0.0 102520
08:00+21w344885 0.0 1025189
11:00+26wsw343345 0.0 10241471
14:00+28w35267 0.0 10232709
17:00+28wnw56245 0.0 10222994
20:00+23nw37426 0.0 1022103
16 may, sun
sun1623:00+19w37505 0.0 1022108
02:00+17wsw33575 0.0 102223
05:00+16wsw336065 0.0 102234
08:00+21w34485 0.0 1023173
11:00+27wnw23295 0.0 10221362
14:00+29wsw232321 0.0 10212690
17:00+30wsw23205 0.0 10203433
20:00+24wsw61040100 0.0 1020244